Year,Month,Day,Hour,Minute,Value (Times are PST for windgust in km/hr)
2020,01,31,15,48,22.50
2020,01,31,15,49,16.10
2020,01,31,15,50,27.40
2020,01,31,15,51,53.10
2020,01,31,15,52,37.00
2020,01,31,15,53,74.00
2020,01,31,15,54,41.80
2020,01,31,15,55,43.50
2020,01,31,15,56,25.70
2020,01,31,15,57,51.50
2020,01,31,15,58,30.60
2020,01,31,15,59,51.50
2020,01,31,16,00,49.90
2020,01,31,16,01,48.30
2020,01,31,16,02,38.60
2020,01,31,16,03,19.30
2020,01,31,16,04,41.80
2020,01,31,16,05,61.20
2020,01,31,16,06,54.70
2020,01,31,16,07,66.00
2020,01,31,16,08,43.50
2020,01,31,16,09,45.10
2020,01,31,16,10,98.20
2020,01,31,16,11,35.40
2020,01,31,16,12,56.30
2020,01,31,16,13,49.90
2020,01,31,16,14,51.50
2020,01,31,16,15,43.50
2020,01,31,16,16,32.20
2020,01,31,16,17,61.20
2020,01,31,16,18,56.30
2020,01,31,16,19,48.30
2020,01,31,16,20,49.90
2020,01,31,16,21,38.60
2020,01,31,16,22,57.90
2020,01,31,16,23,54.70
2020,01,31,16,24,29.00
2020,01,31,16,25,35.40
2020,01,31,16,26,32.20
2020,01,31,16,27,41.80
2020,01,31,16,28,35.40
2020,01,31,16,29,37.00
2020,01,31,16,30,33.80
2020,01,31,16,31,32.20
2020,01,31,16,32,38.60
2020,01,31,16,33,32.20
2020,01,31,16,34,46.70
2020,01,31,16,35,17.70
2020,01,31,16,36,33.80
2020,01,31,16,37,40.20
2020,01,31,16,38,25.70
2020,01,31,16,39,22.50
2020,01,31,16,40,41.80
2020,01,31,16,41,22.50
2020,01,31,16,42,22.50
2020,01,31,16,43,27.40
2020,01,31,16,44,29.00
2020,01,31,16,45,30.60
2020,01,31,16,46,27.40
2020,01,31,16,47,20.90
2020,01,31,16,48,11.30
2020,01,31,16,49,20.90
2020,01,31,16,50,29.00
2020,01,31,16,51,54.70
2020,01,31,16,52,53.10
2020,01,31,16,53,40.20
2020,01,31,16,54,35.40
2020,01,31,16,55,41.80
2020,01,31,16,56,35.40
2020,01,31,16,57,27.40
2020,01,31,16,58,43.50
2020,01,31,16,59,54.70
2020,01,31,17,00,29.00
2020,01,31,17,01,35.40
2020,01,31,17,02,27.40
2020,01,31,17,03,46.70
2020,01,31,17,04,32.20
2020,01,31,17,05,30.60
2020,01,31,17,06,59.50
2020,01,31,17,07,48.30
2020,01,31,17,08,29.00
2020,01,31,17,09,33.80
2020,01,31,17,10,59.50
2020,01,31,17,11,29.00
2020,01,31,17,12,35.40
2020,01,31,17,13,49.90
2020,01,31,17,14,46.70
2020,01,31,17,15,37.00
2020,01,31,17,16,46.70
2020,01,31,17,17,53.10
2020,01,31,17,18,48.30
2020,01,31,17,19,32.20
2020,01,31,17,20,22.50
2020,01,31,17,21,24.20
2020,01,31,17,22,46.70
2020,01,31,17,23,29.00
2020,01,31,17,24,57.90
2020,01,31,17,25,25.70
2020,01,31,17,26,30.60
2020,01,31,17,27,57.90
2020,01,31,17,28,75.60
2020,01,31,17,29,62.70
2020,01,31,17,30,74.00
2020,01,31,17,31,24.20
2020,01,31,17,32,32.20
2020,01,31,17,33,25.70
2020,01,31,17,34,33.80
2020,01,31,17,35,30.60
2020,01,31,17,36,30.60
2020,01,31,17,37,41.80
2020,01,31,17,38,33.80
2020,01,31,17,39,27.40
2020,01,31,17,40,17.70
2020,01,31,17,41,22.50
2020,01,31,17,42,33.80
2020,01,31,17,43,32.20
2020,01,31,17,44,30.60
2020,01,31,17,45,38.60
2020,01,31,17,46,25.70
2020,01,31,17,47,12.90
2020,01,31,17,48,29.00
2020,01,31,17,49,29.00
2020,01,31,17,50,24.20
2020,01,31,17,51,40.20
2020,01,31,17,52,30.60
2020,01,31,17,53,27.40
2020,01,31,17,54,16.10
2020,01,31,17,55,24.20
2020,01,31,17,56,12.90
2020,01,31,17,57,46.70
2020,01,31,17,58,46.70
2020,01,31,17,59,56.30
2020,01,31,18,00,35.40
2020,01,31,18,01,24.20
2020,01,31,18,02,24.20
2020,01,31,18,03,19.30
2020,01,31,18,04,22.50
2020,01,31,18,05,35.40
2020,01,31,18,06,49.90
2020,01,31,18,07,45.10
2020,01,31,18,08,48.30
2020,01,31,18,09,32.20
2020,01,31,18,10,19.30
2020,01,31,18,11,32.20
2020,01,31,18,12,35.40
2020,01,31,18,13,27.40
2020,01,31,18,14,25.70
2020,01,31,18,15,20.90
2020,01,31,18,16,20.90
2020,01,31,18,17,25.70
2020,01,31,18,18,54.70
2020,01,31,18,19,35.40
2020,01,31,18,20,22.50
2020,01,31,18,21,24.20
2020,01,31,18,22,32.20
2020,01,31,18,23,30.60
2020,01,31,18,24,38.60
2020,01,31,18,25,29.00
2020,01,31,18,26,19.30
2020,01,31,18,27,16.10
2020,01,31,18,28,24.20
2020,01,31,18,29,33.80
2020,01,31,18,30,38.60
2020,01,31,18,31,43.50
2020,01,31,18,32,35.40
2020,01,31,18,33,38.60
2020,01,31,18,34,22.50
2020,01,31,18,35,24.20
2020,01,31,18,36,20.90
2020,01,31,18,37,25.70
2020,01,31,18,38,38.60
2020,01,31,18,39,38.60
2020,01,31,18,40,49.90
2020,01,31,18,41,20.90
2020,01,31,18,42,20.90
2020,01,31,18,43,46.70
2020,01,31,18,44,41.80
2020,01,31,18,45,38.60
2020,01,31,18,46,33.80
2020,01,31,18,47,37.00
2020,01,31,18,48,24.20
2020,01,31,18,49,40.20
2020,01,31,18,50,32.20
2020,01,31,18,51,66.00
2020,01,31,18,52,43.50
2020,01,31,18,53,25.70
2020,01,31,18,54,38.60
2020,01,31,18,55,57.90
2020,01,31,18,56,32.20
2020,01,31,18,57,35.40
2020,01,31,18,58,43.50
2020,01,31,18,59,35.40
2020,01,31,19,00,25.70
2020,01,31,19,01,41.80
2020,01,31,19,02,40.20
2020,01,31,19,03,40.20
2020,01,31,19,04,22.50
2020,01,31,19,05,43.50
2020,01,31,19,06,38.60
2020,01,31,19,07,41.80
2020,01,31,19,08,43.50
2020,01,31,19,09,22.50
2020,01,31,19,10,41.80
2020,01,31,19,11,54.70
2020,01,31,19,12,53.10
2020,01,31,19,13,33.80
2020,01,31,19,14,53.10
2020,01,31,19,15,48.30
2020,01,31,19,16,59.50
2020,01,31,19,17,54.70
2020,01,31,19,18,51.50
2020,01,31,19,19,61.20
2020,01,31,19,20,62.70
2020,01,31,19,21,66.00
2020,01,31,19,22,37.00
2020,01,31,19,23,43.50
2020,01,31,19,24,41.80
2020,01,31,19,25,53.10
2020,01,31,19,26,53.10
2020,01,31,19,27,41.80
2020,01,31,19,28,45.10
2020,01,31,19,29,35.40
2020,01,31,19,30,29.00
2020,01,31,19,31,30.60
2020,01,31,19,32,38.60
2020,01,31,19,33,38.60
2020,01,31,19,34,38.60
2020,01,31,19,35,38.60
2020,01,31,19,36,43.50
2020,01,31,19,37,29.00
2020,01,31,19,38,25.70
2020,01,31,19,39,37.00
2020,01,31,19,40,32.20
2020,01,31,19,41,24.20
2020,01,31,19,42,14.50
2020,01,31,19,43,38.60
2020,01,31,19,44,30.60
2020,01,31,19,45,49.90
2020,01,31,19,46,43.50
2020,01,31,19,47,46.70
2020,01,31,19,48,30.60
2020,01,31,19,49,37.00
2020,01,31,19,50,40.20
2020,01,31,19,51,29.00
2020,01,31,19,52,40.20
2020,01,31,19,53,33.80
2020,01,31,19,54,20.90
2020,01,31,19,55,29.00
2020,01,31,19,56,41.80
2020,01,31,19,57,45.10
2020,01,31,19,58,53.10
2020,01,31,19,59,25.70
2020,01,31,20,00,32.20
2020,01,31,20,01,32.20
2020,01,31,20,02,45.10
2020,01,31,20,03,49.90
2020,01,31,20,04,29.00
2020,01,31,20,05,29.00
2020,01,31,20,06,45.10
2020,01,31,20,07,37.00
2020,01,31,20,08,19.30
2020,01,31,20,09,30.60
2020,01,31,20,10,32.20
2020,01,31,20,11,30.60
2020,01,31,20,12,37.00
2020,01,31,20,13,20.90
2020,01,31,20,14,14.50
2020,01,31,20,15,19.30
2020,01,31,20,16,14.50
2020,01,31,20,17,3.20
2020,01,31,20,18,14.50
2020,01,31,20,19,11.30
2020,01,31,20,20,20.90
2020,01,31,20,21,22.50
2020,01,31,20,22,32.20
2020,01,31,20,23,35.40
2020,01,31,20,24,22.50
2020,01,31,20,25,35.40
2020,01,31,20,26,41.80
2020,01,31,20,27,32.20
2020,01,31,20,28,29.00
2020,01,31,20,29,37.00
2020,01,31,20,30,32.20
2020,01,31,20,31,27.40
2020,01,31,20,32,27.40
2020,01,31,20,33,17.70
2020,01,31,20,34,14.50
2020,01,31,20,35,11.30
2020,01,31,20,36,11.30
2020,01,31,20,37,17.70
2020,01,31,20,38,16.10
2020,01,31,20,39,19.30
2020,01,31,20,40,12.90
2020,01,31,20,41,12.90
2020,01,31,20,42,19.30
2020,01,31,20,43,8.10
2020,01,31,20,48,12.90
2020,01,31,20,49,9.60
2020,01,31,20,50,11.30
2020,01,31,20,51,9.60
2020,01,31,20,52,6.40
2020,01,31,20,53,27.40
2020,01,31,20,54,27.40
2020,01,31,20,55,20.90
2020,01,31,20,56,8.10
2020,01,31,20,57,14.50
2020,01,31,20,58,8.10
2020,01,31,20,59,6.40
2020,01,31,21,00,11.30
2020,01,31,21,01,20.90
2020,01,31,21,02,24.20
2020,01,31,21,03,17.70
2020,01,31,21,04,11.30
2020,01,31,21,05,6.40
2020,01,31,21,06,9.60
2020,01,31,21,07,16.10
2020,01,31,21,08,16.10
2020,01,31,21,09,19.30
2020,01,31,21,10,32.20
2020,01,31,21,11,14.50
2020,01,31,21,12,14.50
2020,01,31,21,13,3.20
2020,01,31,21,14,17.70
2020,01,31,21,15,12.90
2020,01,31,21,16,9.60
2020,01,31,21,17,12.90
2020,01,31,21,18,3.20
2020,01,31,21,19,11.30
2020,01,31,21,20,4.80
2020,01,31,21,21,6.40
2020,01,31,21,22,22.50
2020,01,31,21,23,19.30
2020,01,31,21,24,8.10
2020,01,31,21,26,6.40
2020,01,31,21,27,8.10
2020,01,31,21,28,4.80
2020,01,31,21,29,8.10
2020,01,31,21,30,12.90
2020,01,31,21,31,4.80
2020,01,31,21,32,17.70
2020,01,31,21,33,20.90
2020,01,31,21,34,11.30
2020,01,31,21,36,8.10
2020,01,31,21,37,17.70
2020,01,31,21,38,24.20
2020,01,31,21,39,19.30
2020,01,31,21,40,9.60
2020,01,31,21,41,14.50
2020,01,31,21,42,8.10
2020,01,31,21,43,11.30
2020,01,31,21,44,16.10
2020,01,31,21,45,6.40
2020,01,31,21,46,22.50
2020,01,31,21,47,17.70
2020,01,31,21,48,11.30
2020,01,31,21,49,4.80
2020,01,31,21,50,11.30
2020,01,31,21,51,11.30
2020,01,31,21,52,8.10
2020,01,31,21,53,3.20
2020,01,31,21,54,8.10
2020,01,31,21,55,3.20
2020,01,31,21,56,4.80
2020,01,31,21,57,25.70
2020,01,31,21,58,8.10
2020,01,31,22,42,4.80
2020,01,31,22,43,4.80
2020,01,31,22,44,12.90
2020,01,31,22,45,8.10
2020,01,31,22,46,3.20
2020,01,31,22,56,6.40
2020,01,31,23,11,6.40
2020,01,31,23,12,4.80
2020,01,31,23,13,1.60
2020,01,31,23,14,6.40
2020,01,31,23,23,6.40
2020,01,31,23,24,6.40
2020,01,31,23,25,9.60
2020,01,31,23,34,8.10
2020,01,31,23,35,6.40
2020,01,31,23,37,19.30
2020,01,31,23,38,22.50
2020,01,31,23,39,9.60
2020,01,31,23,50,6.40
2020,01,31,23,51,9.60
2020,01,31,23,52,6.40
2020,01,31,23,55,8.10
2020,01,31,23,56,8.10
2020,01,31,23,57,4.80
2020,01,31,23,58,14.50
2020,01,31,23,59,12.90
